Waarnemingen

Advertentie
Mijn weer
Barcelona/Aeropuerto, Spanje (8181): temperatuur & dauwpunt: 14.11.2018 12:00:00 - 20.11.2018 12:00:00 (CET)Barcelona/Aeropuerto, Spanje (8181): windsnelheid: 14.11.2018 12:00:00 - 20.11.2018 12:00:00 (CET)Barcelona/Aeropuerto, Spanje (8181): windrichting: 14.11.2018 12:00:00 - 20.11.2018 12:00:00 (CET)Barcelona/Aeropuerto, Spanje (8181): luchtdruk: 14.11.2018 12:00:00 - 20.11.2018 12:00:00 (CET)Barcelona/Aeropuerto, Spanje (8181): zicht: 14.11.2018 12:00:00 - 20.11.2018 12:00:00 (CET)
Datum & Tijd tt [°C] td [°C] ff [km/u] ff [kn] dd ppp [hPa] vv [km]
20.11.2018 12:00:00 14,3 10,8 11 6 N 1001,7 17
20.11.2018 11:00:00 13,9 10,7 11 6 N 1001,7 16
20.11.2018 10:00:00 12,5 10,2 15 8 N 1001,6 25
20.11.2018 09:00:00 - - - - - - -
20.11.2018 08:00:00 10,7 9,5 15 8 N 1001,0 15
20.11.2018 07:00:00 10,3 9,2 11 6 N 1000,6 12
20.11.2018 06:00:00 10,2 9,1 11 6 N 1000,8 15
20.11.2018 05:00:00 10,3 9,1 8 4 NNO 1000,6 17
20.11.2018 04:00:00 10,1 8,9 13 7 N 1000,7 15
20.11.2018 03:00:00 10,2 8,6 11 6 N 1000,8 23
20.11.2018 02:00:00 10,4 8,7 8 4 NNO 1000,8 29
20.11.2018 01:00:00 10,8 9,6 5 3 NW 1001,2 15
20.11.2018 00:00:00 11,1 9,5 8 4 NNW 1000,9 17
19.11.2018 23:00:00 11,7 9,4 11 6 N 1001,1 20
19.11.2018 22:00:00 12,0 9,3 9 5 N 1001,2 20
19.11.2018 21:00:00 12,2 9,0 11 6 N 1000,7 24
19.11.2018 20:00:00 12,9 9,2 11 6 N 1000,5 23
19.11.2018 19:00:00 13,6 8,8 11 6 N 1000,3 30
19.11.2018 18:00:00 14,1 8,5 18 10 ONO 1000,1 30
19.11.2018 17:00:00 14,9 8,2 24 13 O 1000,1 30
19.11.2018 16:00:00 15,1 8,8 26 14 O 1000,4 30
19.11.2018 15:00:00 15,1 9,0 29 16 O 1000,6 30
19.11.2018 14:00:00 15,7 9,1 34 18 O 1001,0 22
19.11.2018 13:00:00 15,7 10,0 34 18 ONO 1001,8 25
19.11.2018 12:00:00 15,8 10,1 35 19 ONO 1002,3 18
19.11.2018 11:00:00 14,7 9,7 29 16 ONO 1003,3 29
19.11.2018 10:00:00 13,9 10,2 26 14 ONO 1003,6 19
19.11.2018 09:00:00 13,6 9,9 26 14 NO 1003,9 20
19.11.2018 08:00:00 13,4 9,8 21 11 NO 1004,0 25
19.11.2018 07:00:00 13,4 10,2 26 14 NO 1004,4 20
19.11.2018 06:00:00 13,2 10,7 21 11 NO 1004,8 14
19.11.2018 05:00:00 12,9 11,3 21 11 NO 1005,2 14
19.11.2018 04:00:00 12,2 11,7 22 12 NNO 1005,6 13
19.11.2018 03:00:00 12,9 12,0 15 8 NO 1006,7 7
19.11.2018 02:00:00 13,2 12,3 24 13 ONO 1007,5 6
19.11.2018 01:00:00 13,9 12,1 26 14 NO 1008,0 13
19.11.2018 00:00:00 14,5 11,8 29 16 O 1008,8 17
18.11.2018 23:00:00 15,1 11,9 35 19 O 1009,2 17
18.11.2018 22:00:00 15,2 12,0 35 19 O 1009,7 18
18.11.2018 21:00:00 14,8 12,1 37 20 O 1009,9 16
18.11.2018 20:00:00 15,0 12,0 35 19 O 1009,9 14
18.11.2018 19:00:00 14,3 12,0 31 17 O 1010,3 15
18.11.2018 18:00:00 13,9 11,1 34 18 O 1010,7 10
18.11.2018 17:00:00 13,6 12,2 28 15 ONO 1010,6 15
18.11.2018 16:00:00 13,4 12,3 35 19 ONO 1011,0 7
18.11.2018 15:00:00 13,1 12,1 37 20 O 1011,3 6
18.11.2018 14:00:00 13,5 11,5 34 18 ONO 1011,4 12
18.11.2018 13:00:00 14,3 11,8 34 18 ONO 1012,0 30
18.11.2018 12:00:00 12,7 10,9 34 18 ONO 1013,0 7
18.11.2018 11:00:00 14,3 9,9 26 14 NO 1012,9 30
18.11.2018 10:00:00 14,1 9,5 28 15 ONO 1013,1 30
18.11.2018 09:00:00 13,2 10,7 18 10 NO 1012,9 30
18.11.2018 08:00:00 13,4 10,7 29 16 ONO 1013,1 30
18.11.2018 07:00:00 12,5 9,4 13 7 N 1012,9 30
18.11.2018 06:00:00 12,6 9,6 13 7 NNO 1012,8 30
18.11.2018 05:00:00 13,1 9,7 18 10 NO 1012,8 30
18.11.2018 04:00:00 13,4 10,0 28 15 ONO 1013,3 30
18.11.2018 03:00:00 13,7 10,5 28 15 ONO 1013,7 30
18.11.2018 02:00:00 13,6 11,1 24 13 ONO 1014,0 30
18.11.2018 01:00:00 13,6 10,2 18 10 ONO 1014,5 30
18.11.2018 00:00:00 13,5 10,8 15 8 NO 1015,0 29
17.11.2018 23:00:00 13,8 11,1 18 10 ONO 1015,2 29
17.11.2018 22:00:00 13,3 11,4 13 7 N 1015,5 18
17.11.2018 21:00:00 13,1 11,5 15 8 N 1015,4 16
17.11.2018 20:00:00 13,8 11,8 13 7 NNO 1015,7 18
17.11.2018 19:00:00 15,3 11,3 16 9 NO 1015,8 15
17.11.2018 18:00:00 16,1 9,1 18 10 O 1015,5 20
17.11.2018 17:00:00 16,4 9,1 21 11 O 1015,7 19
17.11.2018 16:00:00 16,6 11,1 24 13 O 1015,8 15
17.11.2018 15:00:00 16,8 10,3 22 12 O 1016,0 20
17.11.2018 14:00:00 16,7 11,7 26 14 ONO 1016,4 20
17.11.2018 13:00:00 16,7 11,6 21 11 ONO 1017,1 15
17.11.2018 12:00:00 16,3 11,9 21 11 ONO 1017,6 17
17.11.2018 11:00:00 16,2 11,8 15 8 NO 1018,1 17
17.11.2018 10:00:00 15,4 11,6 11 6 N 1018,5 15
17.11.2018 09:00:00 14,8 11,8 13 7 N 1018,4 16
17.11.2018 08:00:00 14,5 11,6 15 8 N 1018,3 18
17.11.2018 07:00:00 14,8 11,8 13 7 N 1018,3 20
17.11.2018 06:00:00 14,9 12,0 9 5 NNO 1018,5 18
17.11.2018 05:00:00 14,8 12,3 11 6 N 1018,9 20
17.11.2018 04:00:00 15,1 12,8 13 7 N 1019,3 14
17.11.2018 03:00:00 16,2 12,4 15 8 NO 1020,1 18
17.11.2018 02:00:00 16,3 12,8 21 11 ONO 1020,1 18
17.11.2018 01:00:00 15,7 14,1 4 2 N 1020,4 10
17.11.2018 00:00:00 15,9 14,1 8 4 N 1020,6 10
16.11.2018 23:00:00 16,7 14,0 13 7 ONO 1020,7 17
16.11.2018 22:00:00 16,4 13,7 13 7 NO 1020,7 14
16.11.2018 21:00:00 16,7 14,2 15 8 ONO 1020,6 16
16.11.2018 20:00:00 16,8 14,3 18 10 ONO 1020,6 17
16.11.2018 19:00:00 16,4 14,2 15 8 O 1020,6 15
16.11.2018 18:00:00 16,5 14,1 16 9 ONO 1020,9 14
16.11.2018 17:00:00 17,2 14,5 21 11 ONO 1020,8 21
16.11.2018 16:00:00 17,5 14,7 22 12 ONO 1020,8 20
16.11.2018 15:00:00 17,3 15,6 13 7 NO 1020,9 11
16.11.2018 14:00:00 16,8 15,3 21 11 ONO 1021,4 12
16.11.2018 13:00:00 16,9 14,7 18 10 NO 1021,7 10
16.11.2018 12:00:00 17,2 14,3 13 7 NNO 1022,1 18
16.11.2018 11:00:00 16,2 13,9 18 10 N 1022,5 19
16.11.2018 10:00:00 15,1 13,3 18 10 N 1022,1 30
16.11.2018 09:00:00 13,5 12,4 15 8 N 1021,9 22
16.11.2018 08:00:00 13,4 12,6 18 10 N 1021,1 11
16.11.2018 07:00:00 13,7 12,9 16 9 N 1020,8 12
16.11.2018 06:00:00 14,2 13,2 16 9 N 1020,9 10
16.11.2018 05:00:00 14,3 13,5 15 8 N 1020,9 8
16.11.2018 04:00:00 14,9 13,8 13 7 N 1020,7 20
16.11.2018 03:00:00 14,9 13,8 16 9 N 1020,8 20
16.11.2018 02:00:00 15,0 14,2 13 7 N 1021,0 15
16.11.2018 01:00:00 15,0 14,4 15 8 N 1021,4 25
16.11.2018 00:00:00 15,2 14,7 13 7 N 1021,4 18
15.11.2018 23:00:00 15,7 15,1 11 6 NNO 1021,4 19
15.11.2018 22:00:00 15,9 15,5 22 12 ONO 1021,0 12
15.11.2018 21:00:00 16,3 16,1 21 11 ONO 1020,5 13
15.11.2018 20:00:00 15,5 15,5 15 8 N 1020,5 7
15.11.2018 19:00:00 - - - - - - -
15.11.2018 18:00:00 14,9 14,9 15 8 N 1020,3 2,8
15.11.2018 17:00:00 15,5 15,2 16 9 NNO 1019,8 8
15.11.2018 16:00:00 16,0 15,2 21 11 N 1019,7 30
15.11.2018 15:00:00 16,5 15,0 18 10 NNW 1020,0 30
15.11.2018 14:00:00 16,9 15,2 22 12 N 1020,3 30
15.11.2018 13:00:00 19,8 18,1 28 15 O 1020,2 11
15.11.2018 12:00:00 19,3 18,1 24 13 O 1020,8 14
15.11.2018 11:00:00 19,2 18,6 18 10 OZO 1020,7 12
15.11.2018 10:00:00 16,2 16,2 9 5 NNO 1020,9 7
15.11.2018 09:00:00 16,4 16,4 15 8 NO 1020,6 12
15.11.2018 08:00:00 15,6 14,0 18 10 N 1020,1 30
15.11.2018 07:00:00 16,0 14,4 18 10 N 1019,9 20
15.11.2018 06:00:00 16,9 15,9 13 7 N 1019,9 12
15.11.2018 05:00:00 17,5 16,2 13 7 ONO 1020,0 11
15.11.2018 04:00:00 17,1 16,5 8 4 NNO 1020,4 7
15.11.2018 03:00:00 17,0 16,4 13 7 N 1021,2 8
15.11.2018 02:00:00 17,2 16,6 11 6 N 1021,5 6
15.11.2018 01:00:00 17,8 17,3 13 7 ONO 1021,7 6
15.11.2018 00:00:00 18,1 17,6 9 5 O 1022,0 8
14.11.2018 23:00:00 18,1 17,5 11 6 O 1022,5 8
14.11.2018 22:00:00 18,0 17,2 15 8 O 1022,7 8
14.11.2018 21:00:00 17,8 16,8 13 7 ONO 1022,8 9
14.11.2018 20:00:00 17,9 16,8 18 10 ONO 1022,9 9
14.11.2018 19:00:00 18,2 17,0 21 11 ONO 1023,1 12
14.11.2018 18:00:00 18,5 17,0 18 10 O 1023,1 10
14.11.2018 17:00:00 18,8 16,6 22 12 O 1023,2 13
14.11.2018 16:00:00 19,4 16,0 24 13 O 1023,1 15
14.11.2018 15:00:00 19,3 16,3 24 13 O 1023,5 16
14.11.2018 14:00:00 19,5 16,4 22 12 O 1023,7 16
14.11.2018 13:00:00 19,5 16,0 26 14 ONO 1024,0 15
14.11.2018 12:00:00 19,5 16,1 24 13 O 1024,9 17

tt = temperatuur
td = dauwpunt
ff = windsnelheid
dd = windrichting
ppp = luchtdruk
vv = zicht

Weerstations in de omgeving